Location: Dal�� Lhota
(48.7500°N, 14.0167°E)
Time: 06:50:38
(UTC+00:00)

Courier 1B Rocket - Pass Details

Date: 04 August 2021
Orbit: 920 x 1202 km, 28.3° (Epoch: 27 September)

Event Time Altitude Azimuth Distance (km) Brightness Sun altitude
Rises 00:07:54 0° 219° (SW) 3,847 - -22.8°
Reaches altitude 10° 00:13:27 10° 184° (S) 2,807 - -22.5°
Maximum altitude 00:14:53 11° 172° (S) 2,734 - -22.5°
Drops below altitude 10° 00:16:18 10° 160° (SSE) 2,765 - -22.4°
Exits shadow 00:20:25 - 130° (SE) 3,373 7.6 -22.2°
Sets 00:21:35 0° 124° (SE) 3,642 7.8 -22.1°
